Notices

What's New in latest Release from April 7th, 2021:

- Updated Glossary, including Speed of Maximum Gust, and Total Hourly Precipitation

- Updated national and regional climate services offices contacts and prices information

- Addition of station inventory lists for 1981-2010, 1971-2000, and 1961-1990 Normals.

If you haven't already, please take our survey and provide feedback about our website: https://eccc.sondage-survey.ca/f/LanguageSelection.aspx?s=442ca660-fcf1-47c0-95a9-59707d6fd709

Hourly Data Report for February 15, 2012

HALIFAX STANFIELD INT'L A
NOVA SCOTIA

44°52'48.060" N
63°30'00.050" W
145.40 m
8202250
71395
YHZ

Download Data

Hourly Data (February 2012)
Hourly Data Report for February 15, 2012
TIME
LST
Temp Definition
°C
Dew Point Definition
°C
Rel Hum Definition
%
Precip. Amount Definition
mm

Wind Dir Definition
10's deg

Wind Spd Definition
km/h
Visibility Definition
km
Stn Press Definition
kPa
Hmdx Definition


Wind Chill Definition


Weather Definition


00:00 -1.5 -2.2 95   16 9 24.1 100.48   -5 Cloudy
01:00 -0.7 -1.1 97   16 6 24.1 100.48   -3 Cloudy
02:00 -1.2 -1.6 97   17 11 24.1 100.51   -5 Cloudy
03:00 0.0 -0.2 99   15 13 19.3 100.50   -4 Cloudy
04:00 -0.2 -0.4 99   16 11 19.3 100.48   -4 Cloudy
05:00 0.1 0.1 100   14 15 6.4 100.52     Fog
06:00 0.3 0.3 100   14 15 6.4 100.55     Fog
07:00 0.5 0.4 99   14 17 9.7 100.55     Fog
08:00 0.5 0.3 99   14 15 24.1 100.58     Cloudy
09:00 1.1 0.5 96   13 13 24.1 100.58     Cloudy
10:00 2.0 1.3 95   15 9 24.1 100.58     Mostly Cloudy
11:00 3.8 2.6 92   16 6 24.1 100.52     Mostly Cloudy
12:00 4.5 2.3 86   12 4 24.1 100.48     Mostly Cloudy
13:00 4.8 2.2 83   9 4 24.1 100.41     Mostly Cloudy
14:00 4.8 1.4 79   10 4 24.1 100.38     Mainly Clear
15:00 6.2 0.9 69     0 22.5 100.37     Mainly Clear
16:00 6.2 -0.5 62     0 24.1 100.38     Mainly Clear
17:00 4.1 0.4 77   3 4 24.1 100.39     Mostly Cloudy
18:00 3.5 0.8 82   5 6 24.1 100.40     Mostly Cloudy
19:00 2.4 0.9 90   14 6 24.1 100.41     Mostly Cloudy
20:00 2.4 1.0 90     0 24.1 100.43     Mainly Clear
21:00 1.4 0.0 90   6 4 24.1 100.41     Mainly Clear
22:00 0.9 0.3 96     0 24.1 100.41     Mainly Clear
23:00 0.5 -0.4 94   36 6 24.1 100.39     Mainly Clear

Notes on Data Quality.

Legend

  • E = Estimated
  • M = Missing
  • NA = Not Available*
  • [empty] = Indicates an unobserved value
Date modified: